BAW221 EGPF-EGCC

Flight info

Callsign BAW221
Flight time 0h 34m
Altitude 19000
Route NORB1H NORBO T256 DCS L612 LAKEY LAKE1M
Aircraft A319/M-SDE3FGHIRWY/LB1

Departure

Time 2026-05-04 17:41
Airport Glasgow Airport (EGPF)

Arrival

Time 2026-05-04 18:15
Airport Manchester Airport (EGCC)
Time Latitude Longitude Altitude Speed Heading
2026-05-04 17:29 55.86637 -4.43311 26 ft 0 kts 253°
2026-05-04 17:35 55.86647 -4.43248 25 ft 3 kts 265°
2026-05-04 17:35 55.86637 -4.43210 26 ft 3 kts 321°
2026-05-04 17:36 55.86627 -4.43201 26 ft 0 kts 343°
2026-05-04 17:37 55.86630 -4.43202 26 ft 3 kts 343°
2026-05-04 17:37 55.86698 -4.43250 25 ft 12 kts 340°
2026-05-04 17:37 55.86791 -4.43257 23 ft 18 kts 37°
2026-05-04 17:37 55.86857 -4.42997 23 ft 25 kts 52°
2026-05-04 17:38 55.87008 -4.42843 23 ft 25 kts 26°
2026-05-04 17:38 55.87170 -4.42737 23 ft 24 kts 20°
2026-05-04 17:38 55.87331 -4.42626 23 ft 24 kts 21°
2026-05-04 17:38 55.87465 -4.42446 23 ft 24 kts 46°
2026-05-04 17:39 55.87706 -4.41993 19 ft 25 kts 45°
2026-05-04 17:39 55.87832 -4.41850 16 ft 16 kts
2026-05-04 17:39 55.87839 -4.41850 16 ft 0 kts
2026-05-04 17:40 55.87877 -4.41861 16 ft 19 kts 335°
2026-05-04 17:40 55.87883 -4.42040 18 ft 20 kts 228°
2026-05-04 17:40 55.87636 -4.42510 23 ft 88 kts 229°
2026-05-04 17:40 55.87059 -4.43597 67 ft 144 kts 230°
2026-05-04 17:41 55.86378 -4.44881 651 ft 146 kts 229°
2026-05-04 17:41 55.85670 -4.46138 1347 ft 145 kts 234°
2026-05-04 17:41 55.84978 -4.47410 1954 ft 150 kts 233°
2026-05-04 17:41 55.84216 -4.48806 2443 ft 166 kts 232°
2026-05-04 17:42 55.83357 -4.50347 2955 ft 184 kts 231°
2026-05-04 17:42 55.82267 -4.51699 3465 ft 209 kts 200°
2026-05-04 17:42 55.80760 -4.51546 3965 ft 237 kts 159°
2026-05-04 17:42 55.79261 -4.50053 4598 ft 256 kts 148°
2026-05-04 17:43 55.77720 -4.48284 5226 ft 275 kts 149°
2026-05-04 17:43 55.76066 -4.46487 6027 ft 285 kts 150°
2026-05-04 17:43 55.74358 -4.44754 7010 ft 288 kts 152°
2026-05-04 17:43 55.72609 -4.43060 7972 ft 291 kts 153°
2026-05-04 17:44 55.70813 -4.41374 8888 ft 294 kts 154°
2026-05-04 17:44 55.69003 -4.39709 9741 ft 298 kts 154°
2026-05-04 17:44 55.67176 -4.38047 10527 ft 303 kts 155°
2026-05-04 17:44 55.65249 -4.36306 11002 ft 320 kts 155°
2026-05-04 17:45 55.63207 -4.34471 11400 ft 338 kts 155°
2026-05-04 17:45 55.61066 -4.32550 11757 ft 356 kts 155°
2026-05-04 17:45 55.58817 -4.30536 12093 ft 373 kts 155°
2026-05-04 17:45 55.56478 -4.28444 12685 ft 381 kts 155°
2026-05-04 17:46 55.54122 -4.26338 13419 ft 384 kts 155°
2026-05-04 17:46 55.51724 -4.24197 14133 ft 388 kts 155°
2026-05-04 17:46 55.49316 -4.22050 14807 ft 392 kts 155°
2026-05-04 17:46 55.46889 -4.19891 15442 ft 396 kts 155°
2026-05-04 17:47 55.44434 -4.17714 16090 ft 400 kts 155°
2026-05-04 17:47 55.41952 -4.15512 16710 ft 404 kts 155°
2026-05-04 17:47 55.39443 -4.13287 17292 ft 408 kts 155°
2026-05-04 17:47 55.36901 -4.11038 17880 ft 412 kts 155°
2026-05-04 17:48 55.34347 -4.08782 18449 ft 416 kts 154°
2026-05-04 17:48 55.31754 -4.06494 18880 ft 418 kts 154°
2026-05-04 17:48 55.29158 -4.04208 19004 ft 418 kts 154°
2026-05-04 17:48 55.26562 -4.01925 19005 ft 417 kts 154°
2026-05-04 17:49 55.23978 -3.99654 18998 ft 417 kts 154°
2026-05-04 17:49 55.21407 -3.97398 18996 ft 416 kts 154°
2026-05-04 17:49 55.18827 -3.95140 18999 ft 416 kts 154°
2026-05-04 17:49 55.16265 -3.92900 19003 ft 416 kts 154°
2026-05-04 17:50 55.13673 -3.90637 19009 ft 415 kts 154°
2026-05-04 17:50 55.11107 -3.88399 19011 ft 415 kts 154°
2026-05-04 17:50 55.08527 -3.86152 19015 ft 415 kts 154°
2026-05-04 17:50 55.05946 -3.83910 19019 ft 415 kts 154°
2026-05-04 17:51 55.03360 -3.81666 19019 ft 415 kts 154°
2026-05-04 17:51 55.00801 -3.79449 19022 ft 414 kts 154°
2026-05-04 17:51 54.98225 -3.77221 19026 ft 414 kts 154°
2026-05-04 17:51 54.95709 -3.74830 19030 ft 414 kts 148°
2026-05-04 17:52 54.93372 -3.71912 19025 ft 414 kts 140°
2026-05-04 17:52 54.91273 -3.68527 19029 ft 414 kts 134°
2026-05-04 17:52 54.89278 -3.64929 19032 ft 414 kts 133°
2026-05-04 17:52 54.87312 -3.61323 19033 ft 413 kts 133°
2026-05-04 17:53 54.85327 -3.57696 19033 ft 413 kts 133°
2026-05-04 17:53 54.83363 -3.54130 19043 ft 412 kts 133°
2026-05-04 17:53 54.81386 -3.50562 19042 ft 412 kts 133°
2026-05-04 17:53 54.79391 -3.46974 19035 ft 412 kts 133°
2026-05-04 17:54 54.77417 -3.43430 19042 ft 412 kts 133°
2026-05-04 17:54 54.75428 -3.39868 19040 ft 411 kts 133°
2026-05-04 17:54 54.73379 -3.36448 19032 ft 412 kts 139°
2026-05-04 17:54 54.71082 -3.33550 19038 ft 412 kts 148°
2026-05-04 17:55 54.68549 -3.31236 19031 ft 411 kts 156°
2026-05-04 17:55 54.65947 -3.29264 19034 ft 411 kts 157°
2026-05-04 17:55 54.63314 -3.27332 19037 ft 410 kts 158°
2026-05-04 17:55 54.60725 -3.25428 19031 ft 410 kts 157°
2026-05-04 17:56 54.58108 -3.23491 19025 ft 410 kts 157°
2026-05-04 17:56 54.55495 -3.21548 19024 ft 409 kts 157°
2026-05-04 17:56 54.52898 -3.19611 19024 ft 409 kts 157°
2026-05-04 17:56 54.50291 -3.17666 19021 ft 409 kts 157°
2026-05-04 17:57 54.47689 -3.15731 19026 ft 408 kts 157°
2026-05-04 17:57 54.45073 -3.13788 19025 ft 408 kts 157°
2026-05-04 17:57 54.42502 -3.11886 19023 ft 408 kts 157°
2026-05-04 17:57 54.39903 -3.09964 19024 ft 408 kts 157°
2026-05-04 17:58 54.37286 -3.08030 19028 ft 408 kts 157°
2026-05-04 17:58 54.34710 -3.06127 19031 ft 407 kts 157°
2026-05-04 17:58 54.32102 -3.04202 19030 ft 407 kts 157°
2026-05-04 17:58 54.29505 -3.02288 19034 ft 407 kts 157°
2026-05-04 17:59 54.26899 -3.00362 19038 ft 407 kts 156°
2026-05-04 17:59 54.24386 -2.98286 19040 ft 407 kts 153°
2026-05-04 17:59 54.19554 -2.93312 19034 ft 406 kts 147°
2026-05-04 18:00 54.17197 -2.90657 19003 ft 407 kts 146°
2026-05-04 18:00 54.14852 -2.88017 18757 ft 404 kts 146°
2026-05-04 18:00 54.12512 -2.85389 18504 ft 402 kts 147°
2026-05-04 18:00 54.10184 -2.82780 18252 ft 400 kts 147°
2026-05-04 18:01 54.07869 -2.80191 17996 ft 399 kts 147°
2026-05-04 18:01 54.05583 -2.77638 17744 ft 398 kts 147°
2026-05-04 18:01 54.03279 -2.75070 17442 ft 396 kts 147°
2026-05-04 18:02 53.98699 -2.69970 16436 ft 392 kts 147°
2026-05-04 18:02 53.96424 -2.67443 15823 ft 393 kts 147°
2026-05-04 18:02 53.94163 -2.64934 15275 ft 391 kts 147°
2026-05-04 18:02 53.91912 -2.62440 15040 ft 379 kts 147°
2026-05-04 18:03 53.89751 -2.60051 15031 ft 362 kts 147°
2026-05-04 18:03 53.87696 -2.57783 14963 ft 348 kts 148°
2026-05-04 18:03 53.85723 -2.55610 14557 ft 338 kts 148°
2026-05-04 18:03 53.83758 -2.53449 13951 ft 330 kts 148°
2026-05-04 18:04 53.81875 -2.51378 13185 ft 326 kts 148°
2026-05-04 18:04 53.79984 -2.49304 12381 ft 322 kts 148°
2026-05-04 18:04 53.76293 -2.45254 10784 ft 315 kts 148°
2026-05-04 18:05 53.74468 -2.43254 9982 ft 313 kts 148°
2026-05-04 18:05 53.72677 -2.41294 9305 ft 306 kts 148°
2026-05-04 18:05 53.70922 -2.39375 8677 ft 298 kts 148°
2026-05-04 18:05 53.69230 -2.37526 8323 ft 282 kts 148°
2026-05-04 18:06 53.66388 -2.33630 7805 ft 258 kts 129°
2026-05-04 18:06 53.65317 -2.31189 7473 ft 259 kts 126°
2026-05-04 18:06 53.64295 -2.28729 7123 ft 257 kts 126°
2026-05-04 18:07 53.63284 -2.26277 6771 ft 255 kts 126°
2026-05-04 18:07 53.62276 -2.23837 6414 ft 253 kts 125°
2026-05-04 18:07 53.61281 -2.21436 6063 ft 251 kts 125°
2026-05-04 18:07 53.60299 -2.19080 5687 ft 244 kts 126°
2026-05-04 18:08 53.59332 -2.16766 5313 ft 242 kts 125°
2026-05-04 18:08 53.58361 -2.14450 4995 ft 242 kts 126°
2026-05-04 18:08 53.57394 -2.12145 4743 ft 241 kts 125°
2026-05-04 18:08 53.56451 -2.09908 4485 ft 234 kts 125°
2026-05-04 18:09 53.54628 -2.05607 3721 ft 214 kts 126°
2026-05-04 18:09 53.52569 -2.02500 2981 ft 194 kts 174°
2026-05-04 18:10 53.51260 -2.02689 3024 ft 190 kts 196°
2026-05-04 18:10 53.49988 -2.03301 2997 ft 190 kts 200°
2026-05-04 18:10 53.48737 -2.03972 2969 ft 189 kts 200°
2026-05-04 18:10 53.47517 -2.04632 2950 ft 181 kts 201°
2026-05-04 18:11 53.46388 -2.05487 2953 ft 178 kts 216°
2026-05-04 18:11 53.45467 -2.06757 2968 ft 167 kts 228°
2026-05-04 18:11 53.44686 -2.08210 2914 ft 165 kts 234°
2026-05-04 18:11 53.43976 -2.09698 2707 ft 164 kts 236°
2026-05-04 18:12 53.43264 -2.11206 2483 ft 163 kts 235°
2026-05-04 18:12 53.42561 -2.12671 2266 ft 163 kts 235°
2026-05-04 18:12 53.41848 -2.14138 2047 ft 163 kts 235°
2026-05-04 18:12 53.41132 -2.15593 1834 ft 162 kts 234°
2026-05-04 18:13 53.40440 -2.17017 1619 ft 151 kts 235°
2026-05-04 18:13 53.39808 -2.18325 1402 ft 139 kts 234°
2026-05-04 18:13 53.38657 -2.20704 1055 ft 129 kts 234°
2026-05-04 18:14 53.38098 -2.21858 893 ft 128 kts 233°
2026-05-04 18:14 53.37540 -2.23011 724 ft 128 kts 233°
2026-05-04 18:14 53.36982 -2.24165 547 ft 127 kts 233°
2026-05-04 18:15 53.35885 -2.26449 261 ft 122 kts 232°
2026-05-04 18:15 53.35250 -2.27926 260 ft 42 kts 261°
2026-05-04 18:15 53.35242 -2.28085 260 ft 4 kts 264°
2026-05-04 18:16 53.35241 -2.28109 260 ft 0 kts 265°
2026-05-04 18:17 53.35240 -2.28115 260 ft 0 kts 265°
2026-05-04 18:18 53.35240 -2.28117 260 ft 0 kts 265°
2026-05-04 18:18 53.35241 -2.28180 260 ft 16 kts 282°
2026-05-04 18:18 53.35345 -2.28186 260 ft 17 kts 13°
2026-05-04 18:18 53.35467 -2.28147 260 ft 17 kts 17°
2026-05-04 18:19 53.35661 -2.27829 260 ft 20 kts 51°
2026-05-04 18:19 53.35740 -2.27628 260 ft 20 kts 51°
2026-05-04 18:19 53.35806 -2.27494 260 ft 2 kts 52°